STARLINK-34554

Last updated on Sat Jul 19 2025 00:02:08 GMT+0000 (Coordinated Universal Time)

1 64687U 25139Z 25199.58335648 .00032497 00000+0 59033-3 0 9996 2 64687 53.1591 138.1013 0000760 91.8442 128.5635 15.49288956 4387
UTC large
Height (km)
Speed (km/s)
/
Latitude / Longitude
Inclination (degrees)
Orbital Period (minutes)
Azimuth
Elevation
Range (km)
Doppler Factor

Next 0 passes for location: London (51.5072 / 0.1276)

Sorry there are no passes over London.